Weather History for State College, PA

Change the Weather History Date:

Thursday, April 3, 2014

  Actual Average Record
Temperature  
Mean Temperature 50 °F -  
Max Temperature 57 °F 53 °F 81 °F (1963)
Min Temperature 42 °F 34 °F 20 °F (1935)
Degree Days  
Heating Degree Days 16    
Moisture  
Dew Point 23 °F    
Average Humidity 40    
Maximum Humidity 89    
Minimum Humidity 20    
Precipitation  
Precipitation 0.14 in - - ()
Sea Level Pressure  
Sea Level Pressure 30.07 in    
Wind  
Wind Speed 6 mph (NE)    
Max Wind Speed 12 mph    
Max Gust Speed -    
Visibility 9 miles    
Events Rain    
Averages and records for this station are not official NWS values.
T = Trace of Precipitation, MM = Missing Value Source: NWS Daily Summary

Daily Weather History Graph

Daily Weather History Graph

Search for Another Location

Airport:

Trip Planner

Search our weather history database for the weather conditions in past years. The results will help you decide how hot, cold, wet, or windy it might be!

Date:

Astronomy

Apr. 03, 2014 Rise Set
Actual Time 6:51 AM EDT 7:38 PM EDT
Civil Twilight 6:23 AM EDT 8:06 PM EDT
Nautical Twilight 5:50 AM EDT 8:39 PM EDT
Astronomical Twilight 5:16 AM EDT 9:13 PM EDT
Moon 9:17 AM EDT (4/3) 11:57 PM EDT (4/3)
Length of Visible Light 13h 42m
Length of Day
12h 46m
Waxing Crescent, 17% of the Moon is Illuminated
Apr 3
Waxing Crescent
Apr 7
First Quarter
Apr 15
Full
Apr 22
Last Quarter
Apr 29
New

Hourly Weather History & Observations

Time (EDT) Temp. Windchill Dew Point Humidity Pressure Visibility Wind Dir Wind Speed Gust Speed Precip Events Conditions
12:15 AM 54.0 °F - 12.9 °F 20% 30.11 in 10.0 mi NNW 6.9 mph - N/A   Overcast
12:35 AM 53.6 °F - 13.3 °F 20% 30.11 in 10.0 mi NNW 6.9 mph - N/A   Overcast
12:55 AM 52.9 °F - 13.8 °F 21% 30.11 in 10.0 mi NNW 6.9 mph - N/A   Overcast
1:15 AM 52.9 °F - 13.1 °F 21% 30.12 in 10.0 mi Calm Calm - N/A   Overcast
1:35 AM 52.9 °F - 13.3 °F 21% 30.12 in 10.0 mi Calm Calm - N/A   Overcast
1:55 AM 51.8 °F - 14.7 °F 23% 30.12 in 10.0 mi ENE 3.5 mph - N/A   Overcast
2:15 AM 51.3 °F - 16.5 °F 25% 30.11 in 10.0 mi NE 5.8 mph - N/A   Overcast
2:35 AM 50.4 °F - 17.4 °F 27% 30.11 in 10.0 mi NE 5.8 mph - N/A   Overcast
2:55 AM 50.0 °F - 18.1 °F 28% 30.10 in 10.0 mi NE 8.1 mph - N/A   Overcast
3:15 AM 50.0 °F - 18.0 °F 28% 30.12 in 10.0 mi NE 4.6 mph - N/A   Overcast
3:35 AM 49.6 °F - 18.3 °F 29% 30.11 in 10.0 mi NNE 6.9 mph - N/A   Overcast
3:55 AM 49.6 °F - 17.8 °F 28% 30.11 in 10.0 mi NNE 6.9 mph - N/A   Overcast
4:15 AM 48.9 °F - 18.0 °F 29% 30.11 in 10.0 mi NNE 5.8 mph - N/A   Overcast
4:35 AM 47.5 °F - 19.8 °F 33% 30.12 in 10.0 mi East 3.5 mph - N/A   Overcast
4:55 AM 47.5 °F - 20.3 °F 34% 30.11 in 10.0 mi ENE 4.6 mph - N/A   Overcast
5:15 AM 46.8 °F - 21.2 °F 36% 30.11 in 10.0 mi NE 9.2 mph - N/A   Overcast
5:35 AM 46.4 °F 42.9 °F 21.4 °F 37% 30.11 in 10.0 mi NE 6.9 mph - N/A   Overcast
5:53 AM 44.6 °F 41.4 °F 21.2 °F 39% 30.12 in 10.0 mi NE 5.8 mph - N/A   Overcast
6:53 AM 42.8 °F 38.6 °F 21.2 °F 42% 30.12 in 10.0 mi NE 6.9 mph - N/A   Clear
7:53 AM 42.8 °F 37.5 °F 19.4 °F 39% 30.14 in 10.0 mi NE 9.2 mph - N/A   Clear
8:53 AM 46.4 °F 42.9 °F 19.4 °F 34% 30.13 in 10.0 mi ENE 6.9 mph - N/A   Scattered Clouds
9:53 AM 48.2 °F - 19.4 °F 32% 30.13 in 10.0 mi NE 9.2 mph - N/A   Overcast
10:53 AM 50.0 °F - 19.4 °F 30% 30.12 in 10.0 mi NE 6.9 mph - N/A   Clear
11:53 AM 53.6 °F - 19.4 °F 26% 30.10 in 10.0 mi NNE 8.1 mph - N/A   Mostly Cloudy
12:53 PM 53.6 °F - 17.6 °F 24% 30.09 in 10.0 mi NNE 10.4 mph - N/A   Overcast
1:53 PM 57.2 °F - 17.6 °F 21% 30.05 in 10.0 mi NNE 10.4 mph - N/A   Overcast
2:53 PM 57.2 °F - 17.6 °F 21% 30.01 in 10.0 mi NNE 8.1 mph - N/A   Overcast
3:53 PM 57.2 °F - 24.8 °F 29% 29.99 in 10.0 mi SE 9.2 mph - N/A   Overcast
4:53 PM 55.4 °F - 23.0 °F 29% 29.98 in 10.0 mi East 11.5 mph - N/A Rain Light Rain
5:53 PM 51.8 °F - 28.4 °F 41% 29.97 in 10.0 mi East 5.8 mph - N/A Rain Light Rain
6:53 PM 46.4 °F 43.5 °F 33.8 °F 62% 29.99 in 5.0 mi East 5.8 mph - N/A Rain Rain
7:53 PM 44.6 °F - 39.2 °F 81% 29.99 in 5.0 mi Calm Calm - N/A Rain Light Rain
8:53 PM 44.6 °F - 39.2 °F 81% 29.99 in 5.0 mi Calm Calm - N/A Rain Rain
9:15 PM 44.2 °F 41.8 °F 40.5 °F 87% 29.99 in 4.0 mi NE 4.6 mph - 0.03 in Rain Rain
9:35 PM 44.1 °F 41.5 °F 40.5 °F 87% 29.97 in 4.0 mi NE 4.6 mph - 0.06 in Rain Light Rain
9:55 PM 44.6 °F 42.2 °F 41.0 °F 87% 29.98 in 4.0 mi NNE 4.6 mph - N/A Rain Rain
10:15 PM 44.1 °F 40.8 °F 41.0 °F 89% 29.97 in 3.0 mi NNE 5.8 mph - 0.02 in Rain Rain
10:35 PM 44.1 °F 40.1 °F 41.0 °F 89% 29.96 in 2.5 mi NE 6.9 mph - 0.08 in Rain Rain